CW1461 Weather Reports


Display with metric or nautical units.
time (UTC)temp
F
wind
direction
speed
MPH
gust
MPH
rain 1hr
in
rain 24hr
in
rain mn
in
humidity
%
barometer
mb
20180527153604 66 41 4.0 12.0 0.00 0.01 0.00 71 1019.5
20180527153104 67 85 3.0 10.0 0.00 0.01 0.00 72 1019.6
20180527151603 66 86 4.0 10.0 0.00 0.01 0.00 71 1019.6
20180527151104 67 48 5.0 13.0 0.00 0.01 0.00 71 1019.6
20180527150604 66 92 3.0 9.0 0.00 0.01 0.00 71 1019.5
20180527150105 67 56 4.0 12.0 0.00 0.01 0.00 71 1019.6
20180527144604 66 55 3.0 12.0 0.00 0.01 0.00 71 1019.6
20180527144104 66 65 4.0 14.0 0.00 0.01 0.00 71 1019.6
20180527143604 67 42 4.0 15.0 0.00 0.01 0.00 71 1019.7
20180527143104 67 39 3.0 14.0 0.00 0.01 0.00 71 1019.7
20180527141604 67 52 2.0 8.0 0.00 0.01 0.00 71 1019.6
20180527141104 67 87 4.0 14.0 0.00 0.01 0.00 70 1019.6
20180527140605 67 84 5.0 12.0 0.00 0.01 0.00 70 1019.6
20180527140107 67 55 5.0 14.0 0.00 0.01 0.00 71 1019.7
20180527134604 67 68 2.0 7.0 0.00 0.01 0.00 70 1019.9
20180527134104 67 46 4.0 9.0 0.00 0.01 0.00 70 1020.0
20180527133604 67 94 3.0 8.0 0.00 0.01 0.00 71 1020.1
20180527133104 67 20 3.0 10.0 0.00 0.01 0.00 71 1020.1
20180527131604 67 59 3.0 10.0 0.00 0.01 0.00 70 1020.2
20180527131105 67 53 3.0 8.0 0.00 0.01 0.00 70 1020.2
20180527130604 67 30 3.0 13.0 0.00 0.01 0.00 70 1020.1
20180527130104 67 34 3.0 12.0 0.00 0.01 0.00 70 1020.2
20180527124605 67 34 4.0 9.0 0.00 0.01 0.00 70 1020.3
20180527124104 67 68 3.0 9.0 0.00 0.01 0.00 70 1020.4
20180527123604 67 43 3.0 12.0 0.00 0.01 0.00 70 1020.3
20180527123104 67 82 5.0 14.0 0.00 0.01 0.00 70 1020.4
20180527121605 67 55 5.0 12.0 0.00 0.01 0.00 68 1020.6
20180527121104 67 67 3.0 10.0 0.00 0.01 0.00 69 1020.7
20180527120604 67 28 3.0 12.0 0.00 0.01 0.00 69 1020.7
20180527120104 67 60 4.0 12.0 0.00 0.01 0.00 69 1020.8
20180527114604 67 38 3.0 10.0 0.00 0.01 0.00 68 1020.9
20180527114104 67 95 2.0 9.0 0.00 0.01 0.00 69 1021.0
20180527113605 67 69 3.0 10.0 0.00 0.01 0.00 69 1021.0
20180527113105 67 37 2.0 12.0 0.00 0.01 0.00 68 1021.1
20180527111604 67 349 2.0 7.0 0.00 0.01 0.00 70 1021.2
20180527111104 67 357 2.0 8.0 0.00 0.01 0.00 70 1021.4
20180527110604 67 53 2.0 6.0 0.00 0.01 0.00 70 1021.5
20180527110104 66 27 3.0 12.0 0.00 0.01 0.00 70 1021.5
20180527104605 66 35 3.0 9.0 0.00 0.01 0.00 70 1021.5
20180527104104 66 87 3.0 8.0 0.00 0.01 0.00 71 1021.5
20180527103604 66 57 4.0 9.0 0.00 0.01 0.00 71 1021.6
20180527103105 66 44 2.0 9.0 0.00 0.01 0.00 71 1021.5
20180527101604 65 70 5.0 14.0 0.00 0.01 0.00 71 1021.4
20180527101104 65 33 3.0 10.0 0.00 0.01 0.00 72 1021.4
20180527100604 65 11 2.0 10.0 0.00 0.01 0.00 72 1021.4
20180527100105 65 87 1.0 12.0 0.00 0.01 0.00 73 1021.4
20180527094604 65 38 3.0 9.0 0.00 0.01 0.00 72 1021.5
20180527094104 65 30 3.0 9.0 0.00 0.01 0.00 73 1021.5
20180527093604 64 35 2.0 9.0 0.00 0.01 0.00 74 1021.5
20180527093104 64 74 2.0 10.0 0.00 0.01 0.00 74 1021.6
20180527091605 64 57 3.0 8.0 0.00 0.01 0.00 75 1021.6
20180527091104 63 12 1.0 8.0 0.00 0.01 0.00 75 1021.6
20180527090604 63 79 4.0 8.0 0.00 0.01 0.00 75 1021.7
20180527090104 63 49 3.0 12.0 0.00 0.01 0.00 76 1021.7
20180527084604 63 19 3.0 8.0 0.00 0.01 0.00 76 1021.8
20180527084104 62 28 2.0 10.0 0.00 0.01 0.00 77 1021.7
20180527083604 62 4 2.0 9.0 0.00 0.01 0.00 77 1021.8
20180527083104 62 55 3.0 10.0 0.00 0.01 0.00 78 1021.9
20180527081604 61 353 3.0 9.0 0.00 0.01 0.00 79 1022.0
20180527081105 60 353 2.0 6.0 0.00 0.01 0.00 80 1022.2
20180527080604 60 32 2.0 7.0 0.00 0.01 0.00 80 1022.2
20180527080104 60 22 3.0 9.0 0.00 0.01 0.00 81 1022.1
20180527074605 59 58 2.0 9.0 0.00 0.01 0.00 82 1022.2
20180527074104 59 16 2.0 9.0 0.00 0.01 0.00 83 1022.1
20180527073604 59 56 2.0 8.0 0.00 0.01 0.00 83 1022.0
20180527073104 59 22 2.0 8.0 0.00 0.01 0.00 84 1022.0
20180527071604 58 45 2.0 8.0 0.00 0.01 0.00 87 1022.1
20180527071104 57 34 3.0 10.0 0.00 0.01 0.00 87 1022.1
20180527070604 57 54 2.0 10.0 0.00 0.01 0.00 88 1022.2
20180527070105 57 1 3.0 7.0 0.00 0.01 0.00 90 1022.1
20180527064606 56 48 2.0 7.0 0.00 0.01 0.00 91 1022.1
20180527000604 53 40 1.0 8.0 0.00 0.01 0.00 92 1024.4
20180527000105 53 20 1.0 5.0 0.00 0.01 0.00 92 1024.4
20180526234604 53 33 1.0 6.0 0.00 0.01 0.00 92 1024.6
20180526234105 53 358 2.0 3.0 0.00 0.01 0.00 92 1024.7
20180526233604 53 354 2.0 9.0 0.00 0.01 0.00 92 1024.8
20180526233106 53 9 1.0 7.0 0.00 0.01 0.00 92 1024.8
20180526231604 53 14 4.0 9.0 0.00 0.01 0.00 92 1025.0
20180526231105 53 355 1.0 5.0 0.00 0.01 0.00 92 1025.2
20180526230604 53 355 3.0 7.0 0.00 0.01 0.00 92 1025.2
20180526230104 53 61 2.0 7.0 0.00 0.01 0.00 92 1025.2
20180526224604 53 355 1.0 6.0 0.00 0.01 0.01 92 1025.3
20180526224104 53 37 3.0 6.0 0.00 0.01 0.01 92 1025.3
20180526223610 53 48 2.0 7.0 0.00 0.01 0.01 91 1025.2
20180526223104 53 8 3.0 8.0 0.00 0.01 0.01 91 1025.1
20180526221604 53 355 1.0 3.0 0.00 0.01 0.01 91 1025.3
20180526221104 53 23 2.0 6.0 0.00 0.01 0.01 91 1025.3
20180526220604 53 52 1.0 5.0 0.00 0.01 0.01 91 1025.3
20180526220105 53 8 1.0 5.0 0.00 0.01 0.01 91 1025.2
20180526214604 53 356 2.0 7.0 0.00 0.01 0.01 91 1025.3
20180526214104 53 3 2.0 7.0 0.00 0.01 0.01 91 1025.2
20180526213604 53 13 1.0 7.0 0.00 0.01 0.01 91 1025.3
20180526213104 53 25 2.0 9.0 0.00 0.01 0.01 91 1025.2
20180526211605 53 31 2.0 6.0 0.00 0.01 0.01 91 1025.2
20180526211105 53 30 4.0 8.0 0.00 0.01 0.01 90 1025.2
20180526210604 53 12 2.0 5.0 0.00 0.01 0.01 90 1025.2
20180526210105 53 9 2.0 7.0 0.00 0.01 0.01 90 1025.1
20180526204605 53 71 2.0 8.0 0.00 0.01 0.01 90 1025.1
20180526204104 53 13 2.0 7.0 0.00 0.01 0.01 89 1025.2
20180526203604 53 355 3.0 10.0 0.00 0.01 0.01 89 1025.2
20180526203105 53 18 3.0 10.0 0.00 0.01 0.01 89 1025.0
20180526201604 54 21 3.0 9.0 0.00 0.01 0.01 88 1025.0
20180526201104 54 0 2.0 8.0 0.00 0.01 0.01 88 1025.0
20180526200605 54 350 3.0 7.0 0.00 0.01 0.01 88 1025.0
20180526200105 54 332 3.0 12.0 0.00 0.01 0.01 88 1024.8
20180526194604 54 6 3.0 10.0 0.00 0.01 0.01 87 1025.0
20180526194104 54 2 3.0 7.0 0.00 0.01 0.01 87 1025.0
20180526193604 55 26 3.0 9.0 0.00 0.01 0.01 87 1025.0
20180526193104 55 26 4.0 10.0 0.00 0.01 0.01 87 1025.0
20180526191604 55 36 3.0 12.0 0.00 0.01 0.01 86 1024.9
20180526191104 55 12 3.0 9.0 0.00 0.01 0.01 86 1024.8
20180526190604 55 347 3.0 8.0 0.00 0.01 0.01 86 1024.9
20180526190105 55 339 3.0 10.0 0.00 0.01 0.01 86 1024.9
20180526184604 56 8 3.0 10.0 0.00 0.01 0.01 85 1024.8
20180526184104 56 354 4.0 9.0 0.00 0.01 0.01 85 1024.9
20180526183604 56 13 2.0 12.0 0.00 0.01 0.01 85 1024.8
20180526183104 56 20 3.0 10.0 0.00 0.01 0.01 85 1024.9
20180526181604 57 354 3.0 9.0 0.00 0.01 0.01 84 1024.9
20180526181104 57 1 4.0 13.0 0.00 0.01 0.01 84 1025.0
20180526180604 57 4 5.0 9.0 0.00 0.01 0.01 84 1025.0
20180526180105 57 31 5.0 12.0 0.00 0.01 0.01 84 1025.0
20180526174604 57 19 3.0 12.0 0.00 0.01 0.01 83 1025.1
20180526174104 57 339 2.0 10.0 0.00 0.01 0.01 82 1025.1
20180526173604 58 15 6.0 12.0 0.00 0.01 0.01 82 1025.1
20180526173104 58 358 2.0 16.0 0.00 0.01 0.01 82 1025.1
20180526171604 59 349 3.0 9.0 0.00 0.01 0.01 80 1025.1
20180526171103 59 50 5.0 12.0 0.00 0.01 0.01 80 1025.0
20180526170604 59 20 3.0 8.0 0.00 0.01 0.01 80 1025.1
20180526170104 59 19 3.0 13.0 0.00 0.01 0.01 80 1025.1
20180526164604 59 16 3.0 10.0 0.00 0.01 0.01 81 1025.2
20180526164104 59 42 3.0 15.0 0.00 0.01 0.01 80 1025.2
20180526163604 59 354 3.0 9.0 0.00 0.01 0.01 80 1025.2
20180526163105 59 1 4.0 15.0 0.00 0.01 0.01 79 1025.2
20180526161604 60 31 5.0 15.0 0.00 0.02 0.01 78 1025.2
20180526161104 60 23 5.0 12.0 0.00 0.02 0.01 78 1025.3
20180526160604 60 357 4.0 12.0 0.00 0.02 0.01 78 1025.2
20180526160105 60 0 3.0 13.0 0.00 0.03 0.01 78 1025.2
20180526154604 61 2 3.0 12.0 0.00 0.03 0.01 76 1025.3
20180526154104 61 43 3.0 12.0 0.00 0.04 0.01 75 1025.1